Japan Airlines Virtual Airport Information Service

Shanghai Pudong International Airport

ICAO: ZSPD Country: China
Latitude: 31.1434 Longitude: 121.805
Latest Arrival : CAL505 (RCTP-ZSPD) Latest Departure : CES295 (ZSPD-RJOM)


WX CaptureLIVE
Data provided by noaa.gov | Fetched at 07:32:24

METAR : ZSPD 010700Z 11005MPS 080V150 9999 FEW020 25/17 Q1012 NOSIG

TAF : ZSPD 010335Z 0106/0206 14004MPS 9999 SCT023 TX27/0106Z TN20/0120Z


Runway Data for ZSPD
Data provided by openaviationdata.com

Runway ID Mag Var Hdg Length Elevation Surface ILS Freq ILS Id ILS Slope
16 -5 167° 12467 ft 10 ft Concrete -- -- --
17 -5 167° 13150 ft 10 ft Concrete 110.7 IPD 3
34 -5 347° 12467 ft 10 ft Concrete -- -- --
35 -5 347° 13150 ft 10 ft Concrete 111.9 INN 3

Shanghai Pudong International Airport, China
Use only for reference purposes



Not for navigational purposes.